Terug naar catalogus

FLOCK 4BE 23

ActiefWetenschapSSO
NORAD 60490·PAYLOAD·🇺🇸 United States

Gelanceerd Aug 16, 2024 vanaf Vandenberg Space Force Base

Loading…

Volgende Passages (komende 24 uur)

TLE

VersSource: CelesTrak SupGP

Epoch: Sep 14, 2026, 16:45 UTC

1 60490C 24149BE  26257.69804398  .00030414  00000+0  76266-3 0  2576
2 60490  97.3731 340.6458 0002085 325.4760 289.1991 15.40053562    14

Volg FLOCK 4BE 23 in realtime met AllMySat

Download on the App Store